Leadville, CO

9:16 PM MDT on October 22, 2017 (GMT -0600)
Lake County

Weather History for KLXV - October, 2010

Change the Weather History Date:

Monday, October 4, 2010

  Actual Average Record
Temperature  
Mean Temperature 46 °F -  
Max Temperature 59 °F 54 °F 68 °F (1997)
Min Temperature 33 °F 26 °F 17 °F (2013)
Degree Days  
Heating Degree Days 19 25  
Month to date heating degree days 70 97  
Since 1 July heating degree days 1125 1395  
Cooling Degree Days 0 0  
Month to date cooling degree days 0 0  
Year to date cooling degree days 0 0  
Moisture  
Dew Point 27 °F    
Average Humidity 51    
Maximum Humidity 70    
Minimum Humidity 32    
Precipitation  
Precipitation T in 0.03 in 0.31 in (2011)
Month to date precipitation T 0.12  
Year to date precipitation 10.78 10.15  
Snow  
Snow 0.00 in - - ()
Month to date snowfall 0.0  
Snow Depth 0.00 in    
Sea Level Pressure  
Sea Level Pressure 29.98 in    
Wind  
Wind Speed 5 mph (NE)    
Max Wind Speed 18 mph    
Max Gust Speed 26 mph    
Visibility 10 miles    
Events      
T = Trace of Precipitation, MM = Missing Value Source: NWS Daily Summary

Daily Weather History Graph

Daily Weather History Graph

Search for Another Location

Airport or City:

Trip Planner

Search our weather history database for the weather conditions in past years. The results will help you decide how hot, cold, wet, or windy it might be!

Date:

Astronomy

Oct. 04, 2010 Rise Set
Actual Time 7:04 AM MDT 6:43 PM MDT
Civil Twilight 6:37 AM MDT 7:09 PM MDT
Nautical Twilight 6:06 AM MDT 7:40 PM MDT
Astronomical Twilight 5:35 AM MDT 8:11 PM MDT
Moon 3:17 AM MDT (10/4) 4:42 PM MDT (10/4)
Length of Visible Light 12h 32m
Length of Day
11h 38m
Waning Crescent, 13% of the Moon is Illuminated
Oct 4
Waning Crescent
Oct 7
New
Oct 14
First Quarter
Oct 22
Full
Oct 30
Last Quarter

Hourly Weather History & Observations

Time (MDT) Temp. Windchill Dew Point Humidity Pressure Visibility Wind Dir Wind Speed Gust Speed Precip Events Conditions
12:53 AM 37.9 °F 35.5 °F 21.9 °F 53% 29.96 in 10.0 mi Variable 3.5 mph - N/A   Clear
1:53 AM 34.0 °F - 21.0 °F 59% 30.00 in 10.0 mi Calm Calm - N/A   Clear
2:53 AM 36.0 °F 32.1 °F 23.0 °F 59% 29.97 in 10.0 mi ESE 4.6 mph - N/A   Scattered Clouds
3:53 AM 34.0 °F 31.0 °F 23.0 °F 64% 29.95 in 10.0 mi ESE 3.5 mph - N/A   Mostly Cloudy
4:53 AM 37.0 °F - 24.1 °F 59% 29.95 in 10.0 mi Calm Calm - N/A   Overcast
5:53 AM 39.0 °F 35.7 °F 25.0 °F 57% 29.95 in 10.0 mi ESE 4.6 mph - N/A   Mostly Cloudy
6:53 AM 36.0 °F 33.3 °F 25.0 °F 64% 30.01 in 10.0 mi ESE 3.5 mph - N/A   Partly Cloudy
7:53 AM 39.9 °F 35.1 °F 26.1 °F 58% 30.06 in 10.0 mi North 6.9 mph - N/A   Scattered Clouds
8:53 AM 46.9 °F - 27.0 °F 46% 29.99 in 10.0 mi NE 3.5 mph - N/A   Clear
9:53 AM 52.0 °F - 30.0 °F 43% 30.00 in 10.0 mi NNW 4.6 mph - N/A   Clear
10:53 AM 54.0 °F - 28.9 °F 38% 30.03 in 10.0 mi NE 3.5 mph - N/A   Mostly Cloudy
11:53 AM 54.0 °F - 30.9 °F 41% 30.02 in 10.0 mi North 10.4 mph - N/A   Overcast
12:53 PM 55.9 °F - 30.9 °F 39% 29.99 in 10.0 mi NNW 12.7 mph 16.1 mph N/A   Mostly Cloudy
1:53 PM 55.9 °F - 32.0 °F 40% 30.00 in 10.0 mi North 8.1 mph 16.1 mph 0.00 in   Mostly Cloudy
2:53 PM 57.0 °F - 30.0 °F 36% 29.94 in 10.0 mi Variable 5.8 mph - N/A   Clear
3:53 PM 57.9 °F - 28.0 °F 32% 29.93 in 10.0 mi Variable 3.5 mph - N/A   Mostly Cloudy
4:53 PM 55.0 °F - 26.1 °F 33% 29.93 in 10.0 mi WNW 6.9 mph - N/A   Partly Cloudy
5:53 PM 52.0 °F - 27.0 °F 38% 29.94 in 10.0 mi West 3.5 mph - N/A   Clear
6:53 PM 46.0 °F 43.1 °F 30.0 °F 54% 30.01 in 10.0 mi ESE 5.8 mph - N/A   Mostly Cloudy
7:53 PM 46.9 °F - 28.0 °F 48% 29.99 in 10.0 mi Calm Calm - N/A   Overcast
8:53 PM 42.1 °F 39.2 °F 28.0 °F 58% 29.99 in 10.0 mi ESE 4.6 mph - N/A   Mostly Cloudy
9:53 PM 43.0 °F 39.5 °F 28.0 °F 56% 29.96 in 10.0 mi SE 5.8 mph - N/A   Overcast
10:53 PM 39.0 °F - 27.0 °F 62% 29.98 in 10.0 mi Calm Calm - N/A   Partly Cloudy
11:53 PM 36.0 °F 32.1 °F 26.1 °F 67% 30.01 in 10.0 mi NE 4.6 mph - N/A   Overcast